JCSAT 10

导读

JCSAT 10是由日本(JP)研发的通信卫星,于协调世界时2006年8月11日08:00发射升空。该卫星隶属于日本JSAT集团(现由SKY Perfect JSAT公司运营),主要服务区域覆盖亚太地区,设计用于提供高清电视转播、数据通信、宽带网络接入等商用通信服务。JCSAT 10采用成熟的地球同步轨道设计,接替此前JCSAT系列卫星的部分任务,增强了区域通信容量与信号可靠性,成为日本商业通信卫星布局中的重要组成部分,长期稳定支撑亚太地区跨区域通信需求。

基本信息
目录编号:
29272
目录名称:
JCSAT 10
国际标识:
2006-033A
轨道中心:
EARTH
卫星名称:
JCSAT 10
卫星全名:
--
卫星状态:
在轨 (已飞行7254 天)
发射日期:
2006-08-11 UTC
国别 :
日本 (JP)
星等 :
--
轨道信息
数据来源 国际轨道数据 AOE轨道数据
星历时间 2026-06-20T18:50:46+0800
1天前
查看轨道信息
2026-06-21T00:00:00+0800
23小时前
查看轨道信息
半长轴 42165.205km 42165.149km
偏心率 0.0002344 0.0002352
轨道倾角 0.009° 0.008°
近地点辐角 124.578° 122.473°
升交点赤经 338.505° 337.182°
平近点角 96.259° 177.204°
近地点 35777.184km 35777.094km
远地点 35796.952km 35796.93km
周期 1436.121分钟 1436.118分钟
每日圈数 1.002701 1.002703
详细信息
使用方式:
暂无
2D轨道图
3D轨道图
轨道高度分析图
轨道倾角分析图
轨道综合分析图
查看轨道综合分析图